Location: Croagnes
(43.9363°N, 5.3265°E)
Time: 18:06:12
(UTC+00:00)

Cosmos 1975 Rocket - Pass Details

Date: 06 June 2020
Orbit: 603 x 634 km, 82.5° (Epoch: 09 July)

Event Time Altitude Azimuth Distance (km) Brightness Sun altitude
Exits shadow 21:30:51 10° 211° (SSW) 1,983 5.4 -17.2°
Maximum altitude 21:35:01 42° 283° (WNW) 890 4.2 -17.6°
Drops below altitude 10° 21:39:12 10° 355° (N) 1,988 6.7 -18.0°
Sets 21:41:32 0° 2° (N) 2,892 7.5 -18.2°
